Wind_Speed
7 6 4 2 3 3 5 3 7 3 2 4 6 7 6 12 25 26 31 33 39 36 29 24 23 20 21 22 14 13 16 15 17 11 16 12 9 4 1 3 5 10 20 17
6 2 2 3 6 7 4 8 5 5 7 5 8 8 6 14 12 26 32 34 39 37 34 30 27 25 22 21 18 9 13 13 13 10 4 5 1 1 4 9 15 18 23 28
6 3 3 6 7 8 5 6 3 2 3 6 13 6 7 8 21 26 28 33 33 32 31 28 26 22 18 16 15 12 9 6 3 3 2 3 8 12 13 17 21 23 22 21
6 7 7 6 4 1 3 3 4 3 3 5 2 4 5 5 11 17 23 31 32 31 26 24 22 19 17 14 10 9 9 6 1 5 11 15 16 16 18 20 18 16 20 16
3 5 6 6 0 1 4 1 1 1 3 3 3 6 5 5 8 8 15 27 26 23 22 19 15 14 14 11 9 8 8 9 9 12 15 15 17 19 18 16 17 14 14 17
5 3 3 2 3 1 2 1 6 4 3 3 5 5 4 3 7 5 12 24 22 19 16 13 12 11 11 10 8 7 7 10 12 13 13 14 16 15 13 12 13 16 20 23
5 4 5 5 4 6 8 5 3 4 4 4 4 7 1 2 5 14 17 19 18 16 13 9 7 6 6 6 5 4 6 9 10 12 13 13 12 11 13 14 18 22 26 27
4 4 4 6 2 1 4 4 4 4 2 3 6 3 0 4 23 22 18 17 15 14 13 12 11 10 9 9 7 7 9 11 14 13 10 10 13 20 25 25 32 32 23 20
4 1 2 1 2 2 3 4 4 6 3 3 1 3 2 3 7 15 7 12 17 17 20 23 15 7 3 4 8 11 13 14 15 16 18 22 28 29 31 29 29 26 24 23
3 4 1 2 5 8 6 2 4 4 2 2 3 3 4 5 5 9 11 12 15 20 18 15 11 9 9 11 12 14 16 14 15 17 23 25 31 31 35 32 28 27 28 27
2 4 4 4 3 0 5 3 5 4 3 4 2 4 3 8 8 10 14 22 21 18 17 14 11 10 10 13 16 15 12 15 19 22 25 28 30 33 34 31 28 32 30 27
2 5 3 1 3 1 2 3 4 4 2 2 4 4 3 6 19 25 22 19 18 13 12 9 9 10 14 15 15 13 15 17 18 19 22 25 28 30 33 28 28 23 20 13
3 2 3 6 6 5 4 2 5 6 3 3 5 5 6 3 5 15 21 20 20 13 7 7 11 14 15 10 10 13 14 17 19 23 25 23 26 28 29 29 27 24 18 25
2 3 5 6 4 3 2 2 3 5 3 3 6 5 6 7 10 16 19 18 12 7 6 11 15 10 8 8 13 14 15 19 22 24 27 33 36 33 23 27 30 28 34 18
3 3 1 2 4 1 1 1 2 5 4 5 6 7 8 8 10 16 20 14 6 4 8 11 8 7 7 10 11 16 16 17 22 27 32 32 34 31 32 32 30 23 15 12
4 0 2 1 5 6 3 5 6 5 4 5 2 3 5 12 14 16 13 10 6 3 6 4 5 7 4 9 12 13 18 22 26 30 31 32 32 31 35 32 26 16 15 10
3 4 3 3 4 5 5 5 3 2 2 3 5 5 9 6 14 15 11 7 3 2 2 4 6 4 9 10 14 18 22 26 25 25 30 31 28 33 37 29 24 21 17 12
4 4 3 2 3 1 5 4 5 7 3 8 10 6 9 14 14 12 6 2 2 1 3 6 5 10 10 14 17 19 24 23 25 27 29 29 31 33 30 23 23 23 7 10
5 5 3 3 3 5 4 5 5 6 4 6 10 10 10 17 14 8 2 1 3 2 7 6 10 10 13 14 18 25 27 23 27 26 26 27 28 31 25 15 14 13 10 11
6 6 4 3 4 6 5 3 10 7 4 14 14 14 11 16 3 4 3 3 3 5 5 6 7 13 16 20 24 24 22 23 19 26 26 28 27 24 19 15 10 10 11 13
3 3 5 3 2 8 7 6 7 5 7 19 17 15 13 6 7 3 3 4 2 5 4 7 12 13 18 21 20 21 23 24 25 23 25 29 23 18 16 14 12 14 11 9
7 6 4 3 2 8 14 7 7 6 14 17 15 14 12 8 6 6 3 2 2 2 8 11 13 17 20 19 21 25 25 23 24 27 30 23 20 19 12 12 12 10 9 11
2 7 6 10 7 6 22 11 18 13 16 18 19 15 10 8 7 5 4 4 4 7 10 14 19 22 24 22 25 25 25 27 33 29 24 22 21 19 13 12 12 14 13 14
4 9 3 3 6 16 15 17 12 17 15 17 16 13 7 6 7 7 6 3 7 11 16 20 24 26 25 25 24 26 29 31 27 22 22 22 21 14 14 14 13 11 12 16
6 8 5 4 4 3 7 14 16 14 13 15 10 4 7 9 9 6 3 6 10 15 19 22 24 23 24 24 25 29 32 30 19 18 20 21 17 15 14 12 10 11 15 17
7 7 4 7 8 9 10 17 19 17 16 12 9 14 12 9 6 2 5 11 16 19 22 22 22 24 23 25 28 29 27 26 22 23 20 15 15 13 12 11 12 13 15 14
Wind_Direction
11 63 134 236 156 209 249 89 120 100 162 100 94 67 44 86 97 93 93 96 93 89 94 108 110 136 160 170 176 149 144 159 185 190 198 202 198 159 7 289 298 306 296 286
30 98 237 23 40 57 70 89 12 11 13 84 104 61 30 61 73 101 107 104 101 98 92 93 97 115 128 129 126 155 171 183 216 209 177 189 27 279 301 305 286 277 287 296
134 199 7 86 40 73 35 98 86 162 338 43 110 41 61 46 81 92 101 108 107 104 102 100 102 104 107 108 107 117 105 104 110 72 22 301 298 294 277 288 296 298 304 307
83 5 103 85 66 80 61 168 155 145 95 154 148 141 36 109 89 86 100 107 109 109 105 104 103 100 98 98 104 102 95 86 82 305 321 317 313 309 300 298 299 296 302 294
225 62 62 68 18 89 203 295 60 55 92 82 12 94 158 211 108 110 111 117 116 113 110 108 102 98 89 87 84 46 18 10 1 342 332 318 308 299 295 284 284 282 290 286
94 103 69 277 309 310 307 5 38 50 61 47 301 125 197 231 151 118 118 127 123 109 98 94 83 75 67 66 51 26 9 339 330 328 317 306 300 288 275 268 274 280 272 301
46 8 325 28 37 3 41 57 13 24 15 204 325 56 282 162 120 130 124 132 127 123 121 119 111 69 78 73 57 45 4 337 333 319 305 294 288 287 286 286 297 300 308 310
128 354 357 329 87 209 9 105 142 162 171 268 8 81 173 116 128 130 126 128 129 136 135 143 144 120 107 85 65 26 356 340 331 318 309 311 318 319 316 310 310 313 304 303
130 148 293 358 326 124 318 51 159 106 12 70 263 40 30 171 131 116 153 181 165 133 116 121 113 106 82 6 12 359 347 335 321 317 324 327 333 330 327 323 316 314 300 299
174 111 276 336 20 13 99 174 43 10 102 113 335 185 214 165 92 69 70 137 116 117 113 109 97 73 43 24 5 348 339 340 348 347 341 336 334 329 330 319 308 298 303 295
71 95 284 46 29 348 9 25 58 105 109 147 144 274 277 128 121 110 106 112 114 112 103 99 80 49 18 359 350 357 5 356 349 345 338 335 329 326 324 312 300 301 298 298
24 115 82 153 279 303 118 116 103 109 236 71 138 260 189 170 137 135 136 126 121 124 111 86 46 17 360 359 359 1 349 346 350 344 342 336 331 323 318 303 308 301 303 304
9 45 69 354 350 349 115 116 102 100 80 195 129 257 181 165 116 150 125 124 122 117 98 41 10 358 357 1 351 343 343 339 330 325 327 329 329 329 320 298 292 282 264 289
44 82 148 178 196 183 144 112 140 115 120 188 212 218 178 169 120 117 120 121 110 84 21 356 350 7 360 342 339 338 330 326 322 318 323 329 334 334 334 325 322 301 303 309
83 113 82 57 28 27 213 133 119 195 204 170 245 218 174 162 142 136 132 128 120 43 2 356 3 360 340 340 330 324 322 319 324 330 333 336 336 333 334 334 326 314 309 306
18 156 54 62 14 17 317 293 257 242 227 232 206 62 112 129 131 131 135 132 114 46 14 30 352 334 353 327 326 323 322 329 336 335 335 333 330 332 337 334 318 288 304 261
73 108 78 255 5 357 348 222 213 170 37 223 219 175 134 124 140 154 156 155 142 23 16 340 339 359 331 325 323 326 330 334 336 332 333 329 328 334 337 332 322 309 273 310
112 89 73 191 30 20 249 304 207 141 90 112 104 130 147 159 160 157 153 153 197 208 320 334 343 333 322 321 323 327 336 337 332 327 324 324 326 333 335 329 330 323 343 302
88 116 90 132 195 300 300 189 160 167 223 175 146 154 140 153 148 165 141 74 194 319 333 324 324 322 325 325 328 329 332 330 324 318 322 324 327 332 332 326 332 326 327 305
69 78 113 146 141 217 235 213 133 87 277 175 163 167 160 160 173 239 189 292 227 320 312 317 323 328 323 324 325 327 324 321 318 319 322 325 328 324 317 314 317 312 312 311
52 11 152 141 215 286 240 194 138 103 238 172 180 179 175 184 208 224 212 165 314 319 327 331 328 326 326 329 328 321 323 325 324 318 323 326 320 315 314 306 301 314 308 309
166 150 195 106 96 279 190 157 173 198 158 181 187 183 183 197 206 185 196 272 298 295 307 316 318 323 328 326 318 321 325 326 322 318 324 328 322 325 310 310 312 313 314 316
216 188 182 185 211 244 182 204 208 209 192 192 189 182 194 191 191 203 200 199 272 301 314 319 325 327 327 325 327 326 325 324 322 321 327 324 323 319 307 310 312 313 313 322
247 166 201 105 235 231 236 223 225 208 217 189 194 179 200 199 186 186 180 242 294 312 321 325 324 321 323 325 324 321 320 318 316 314 319 319 321 314 308 306 310 309 315 323
213 145 202 253 284 117 206 217 216 197 184 171 174 193 210 187 170 189 232 295 316 321 324 324 321 321 323 324 322 320 319 322 320 309 308 312 317 318 313 309 298 305 316 325
203 197 174 234 220 232 237 206 193 185 183 195 193 159 159 186 184 239 313 324 324 322 320 319 320 322 323 322 322 324 320 319 307 301 304 302 315 322 339 320 302 302 311 320
Height
1507 1516 1523 1515 1514 1515 1516 1521 1524 1520 1517 1520 1530 1534 1530 1525 1526 1530 1531 1535 1538 1540 1543 1543 1544 1546 1549 1552 1555 1557 1558 1558 1561 1562 1564 1565 1566 1567 1567 1567 1566 1564 1564 1561
1517 1523 1514 1513 1514 1517 1517 1523 1528 1522 1519 1524 1536 1540 1537 1530 1533 1533 1534 1537 1539 1543 1546 1547 1549 1553 1555 1557 1560 1562 1561 1562 1564 1563 1565 1568 1569 1568 1564 1566 1564 1560 1557 1555
1522 1517 1513 1517 1521 1524 1528 1529 1529 1530 1525 1527 1534 1547 1545 1543 1539 1539 1541 1541 1543 1545 1548 1552 1552 1556 1559 1561 1562 1563 1564 1565 1565 1566 1567 1567 1567 1566 1565 1562 1559 1556 1553 1551
1517 1516 1517 1521 1524 1524 1531 1525 1526 1528 1534 1547 1530 1569 1554 1551 1548 1545 1546 1545 1548 1549 1552 1554 1556 1559 1562 1564 1565 1565 1565 1565 1566 1566 1566 1564 1563 1561 1559 1556 1554 1551 1549 1547
1525 1522 1524 1525 1524 1521 1527 1520 1522 1524 1533 1535 1537 1557 1557 1551 1551 1551 1550 1550 1551 1552 1553 1557 1559 1560 1562 1563 1564 1564 1563 1563 1562 1561 1560 1559 1557 1555 1554 1553 1551 1548 1547 1542
1520 1520 1521 1522 1520 1519 1519 1521 1528 1531 1539 1562 1540 1548 1561 1554 1551 1551 1552 1551 1552 1552 1555 1558 1560 1561 1562 1563 1563 1563 1562 1561 1560 1559 1558 1556 1554 1552 1550 1548 1546 1543 1536 1538
1526 1526 1522 1521 1523 1521 1523 1533 1564 1565 1572 1570 1540 1552 1558 1548 1548 1548 1551 1553 1554 1554 1557 1559 1561 1561 1562 1562 1562 1562 1562 1560 1560 1559 1557 1554 1552 1550 1547 1544 1543 1538 1539 1529
1540 1548 1529 1524 1526 1529 1528 1535 1566 1561 1577 1569 1548 1562 1561 1550 1550 1551 1552 1554 1555 1556 1557 1560 1562 1561 1562 1562 1562 1562 1561 1561 1559 1557 1555 1553 1551 1549 1546 1541 1538 1532 1530 1527
1539 1540 1527 1526 1524 1526 1531 1544 1536 1560 1570 1579 1565 1557 1553 1551 1550 1550 1553 1554 1555 1558 1560 1560 1561 1561 1561 1562 1562 1562 1561 1560 1558 1555 1553 1551 1547 1544 1541 1537 1533 1528 1526 1522
1526 1541 1529 1526 1524 1525 1528 1531 1552 1563 1572 1570 1567 1560 1561 1554 1553 1553 1553 1553 1556 1559 1560 1560 1560 1560 1561 1561 1561 1560 1558 1555 1554 1551 1548 1546 1542 1539 1536 1532 1528 1524 1521 1517
1523 1532 1539 1531 1537 1538 1538 1541 1545 1552 1570 1580 1589 1572 1551 1551 1551 1554 1556 1556 1558 1560 1560 1560 1560 1560 1560 1559 1558 1556 1555 1552 1550 1546 1545 1542 1539 1534 1530 1526 1523 1519 1515 1511
1527 1538 1556 1540 1533 1531 1533 1539 1547 1573 1562 1580 1583 1574 1550 1551 1550 1552 1555 1557 1558 1562 1561 1560 1560 1559 1558 1556 1554 1553 1552 1549 1546 1544 1541 1538 1535 1532 1527 1523 1519 1517 1514 1509
1529 1541 1566 1555 1545 1536 1538 1537 1543 1554 1568 1566 1591 1573 1549 1551 1551 1551 1552 1556 1557 1558 1559 1558 1557 1555 1553 1553 1552 1551 1548 1545 1542 1540 1537 1534 1531 1527 1522 1517 1513 1509 1505 1502
1529 1538 1546 1559 1546 1542 1541 1540 1544 1551 1575 1566 1568 1553 1553 1553 1550 1551 1553 1553 1555 1556 1555 1554 1552 1553 1552 1551 1549 1547 1544 1541 1538 1535 1532 1528 1524 1520 1516 1513 1509 1505 1500 1496
1532 1543 1541 1542 1543 1539 1540 1541 1544 1547 1549 1558 1550 1550 1546 1547 1548 1549 1550 1551 1552 1553 1553 1551 1552 1551 1550 1548 1545 1543 1541 1538 1534 1531 1528 1523 1519 1516 1512 1508 1503 1498 1496 1492
1535 1549 1544 1545 1546 1548 1545 1544 1543 1543 1541 1541 1539 1547 1544 1546 1548 1550 1550 1550 1551 1552 1552 1552 1551 1548 1546 1544 1542 1539 1537 1534 1530 1526 1523 1519 1515 1511 1506 1501 1496 1494 1491 1488
1541 1551 1560 1561 1558 1554 1562 1541 1536 1534 1535 1536 1543 1541 1545 1547 1548 1548 1549 1549 1550 1550 1550 1549 1547 1544 1542 1540 1538 1536 1533 1529 1525 1522 1518 1514 1510 1505 1500 1496 1492 1489 1486 1485
1545 1554 1569 1572 1569 1577 1538 1532 1531 1535 1538 1537 1539 1543 1544 1545 1546 1547 1548 1547 1547 1547 1546 1545 1543 1541 1540 1538 1535 1532 1528 1524 1520 1515 1512 1509 1505 1500 1495 1491 1488 1485 1481 1482
1538 1554 1571 1577 1572 1553 1534 1531 1532 1533 1539 1537 1538 1541 1543 1544 1546 1547 1546 1545 1545 1544 1543 1541 1540 1538 1537 1534 1531 1527 1523 1519 1515 1511 1507 1503 1500 1495 1491 1488 1485 1483 1480 1479
1543 1547 1559 1572 1577 1574 1536 1527 1527 1528 1546 1532 1534 1538 1539 1542 1549 1542 1542 1541 1542 1541 1540 1539 1537 1536 1533 1529 1526 1521 1517 1514 1511 1507 1503 1498 1495 1491 1487 1484 1481 1479 1478 1476
1558 1562 1566 1581 1581 1552 1528 1524 1527 1547 1539 1526 1529 1532 1534 1536 1536 1537 1538 1538 1539 1538 1537 1535 1534 1531 1529 1525 1521 1517 1513 1509 1506 1502 1498 1494 1490 1487 1484 1480 1478 1476 1474 1472
1546 1557 1563 1569 1577 1555 1519 1524 1531 1522 1520 1522 1525 1527 1529 1530 1531 1533 1535 1536 1534 1533 1532 1531 1529 1527 1524 1520 1516 1513 1509 1505 1502 1498 1494 1489 1486 1482 1479 1477 1475 1473 1471 1469
1533 1528 1537 1536 1531 1514 1513 1511 1513 1514 1515 1517 1520 1522 1525 1526 1528 1529 1530 1530 1530 1529 1528 1527 1524 1521 1519 1516 1512 1508 1504 1500 1496 1492 1488 1485 1481 1478 1476 1474 1472 1470 1468 1465
1517 1516 1524 1523 1510 1510 1510 1510 1510 1511 1512 1514 1517 1520 1522 1523 1525 1526 1526 1526 1526 1525 1524 1522 1519 1516 1514 1511 1507 1503 1498 1494 1490 1487 1484 1481 1477 1474 1472 1470 1468 1466 1464 1462
1513 1513 1512 1514 1508 1506 1506 1507 1507 1509 1511 1513 1515 1517 1519 1521 1522 1522 1523 1523 1523 1522 1520 1517 1514 1511 1508 1505 1500 1495 1491 1487 1484 1482 1479 1476 1473 1470 1468 1466 1465 1463 1461 1458
1505 1506 1512 1507 1501 1501 1500 1502 1504 1506 1509 1510 1512 1513 1516 1518 1519 1520 1520 1520 1519 1517 1515 1512 1509 1506 1502 1498 1493 1489 1485 1481 1479 1476 1474 1471 1470 1467 1465 1463 1462 1460 1457 1455